"Period start","avg(HW err(1)/warn(2) (#))","avg(Visibility (m))","avg(Weather code (#))","avg(Precip intensity (mm/h))","min(HW err(1)/warn(2) (#))","max(HW err(1)/warn(2) (#))","std(HW err(1)/warn(2) (#))","med(HW err(1)/warn(2) (#))","min(Visibility (m))","max(Visibility (m))","std(Visibility (m))","med(Visibility (m))","min(Weather code (#))","max(Weather code (#))","std(Weather code (#))","med(Weather code (#))","min(Precip intensity (mm/h))","max(Precip intensity (mm/h))","std(Precip intensity (mm/h))","med(Precip intensity (mm/h))"
2017-10-28 00:00:00,2,43072,0,0.00,2,2,0,2,40268,46038,2094,42674,0,0,0,0,0.00,0.00,0.00,0.00
2017-10-28 00:10:00,2,38096,0,0.00,2,2,0,2,31549,48268,4323,37187,0,0,0,0,0.00,0.00,0.00,0.00
2017-10-28 00:20:00,2,44793,0,0.00,2,2,0,2,39430,48278,3351,46258,0,0,0,0,0.00,0.00,0.00,0.00
2017-10-28 00:30:00,2,43952,0,0.00,2,2,0,2,38967,49097,2655,43599,0,0,0,0,0.00,0.00,0.00,0.00
2017-10-28 00:40:00,2,48166,0,0.00,2,2,0,2,43745,50000,2234,49615,0,0,0,0,0.00,0.00,0.00,0.00
2017-10-28 00:50:00,2,49298,0,0.00,2,2,0,2,46374,50000,1379,50000,0,0,0,0,0.00,0.00,0.00,0.00
2017-10-28 01:00:00,2,46024,0,0.00,2,2,0,2,41948,50000,2849,45502,0,0,0,0,0.00,0.00,0.00,0.00
2017-10-28 01:10:00,2,46061,0,0.00,2,2,0,2,42673,48760,2060,46052,0,0,0,0,0.00,0.00,0.00,0.00
2017-10-28 01:20:00,2,43432,0,0.00,2,2,0,2,34793,50000,4549,43338,0,0,0,0,0.00,0.00,0.00,0.00
2017-10-28 01:30:00,2,43280,0,0.00,2,2,0,2,38054,50000,3222,43369,0,0,0,0,0.00,0.00,0.00,0.00
2017-10-28 01:40:00,2,46064,0,0.00,2,2,0,2,39181,50000,3651,45698,0,0,0,0,0.00,0.00,0.00,0.00
2017-10-28 01:50:00,2,39827,0,0.00,2,2,0,2,29017,50000,5557,39133,0,0,0,0,0.00,0.00,0.00,0.00
2017-10-28 02:00:00,2,39005,0,0.00,2,2,0,2,28782,48607,6357,39315,0,0,0,0,0.00,0.00,0.00,0.00
2017-10-28 02:10:00,2,32948,0,0.00,2,2,0,2,22351,37496,4310,34222,0,0,0,0,0.00,0.00,0.00,0.00
2017-10-28 02:20:00,2,38605,0,0.00,2,2,0,2,32122,43574,3465,39560,0,0,0,0,0.00,0.00,0.00,0.00
2017-10-28 02:30:00,2,45758,0,0.00,2,2,0,2,40262,50000,3442,46662,0,0,0,0,0.00,0.00,0.00,0.00
2017-10-28 02:40:00,2,43637,0,0.00,2,2,0,2,37835,50000,3834,43488,0,0,0,0,0.00,0.00,0.00,0.00
2017-10-28 02:50:00,2,35580,0,0.00,2,2,0,2,25315,44885,5533,35548,0,0,0,0,0.00,0.00,0.00,0.00
2017-10-28 03:00:00,2,44323,0,0.00,2,2,0,2,36809,50000,3780,44178,0,0,0,0,0.00,0.00,0.00,0.00
2017-10-28 03:10:00,2,42067,0,0.00,2,2,0,2,33633,50000,5148,42626,0,0,0,0,0.00,0.00,0.00,0.00
2017-10-28 03:20:00,2,43126,0,0.00,2,2,0,2,36090,50000,4828,42934,0,0,0,0,0.00,0.00,0.00,0.00
2017-10-28 03:30:00,2,39768,0,0.00,2,2,0,2,26727,50000,8835,40562,0,0,0,0,0.00,0.00,0.00,0.00
2017-10-28 03:40:00,2,38097,0,0.00,2,2,0,2,28176,50000,7384,39307,0,0,0,0,0.00,0.00,0.00,0.00
2017-10-28 03:50:00,2,40319,0,0.00,2,2,0,2,30719,50000,5798,40918,0,0,0,0,0.00,0.00,0.00,0.00
2017-10-28 04:00:00,2,44304,0,0.00,2,2,0,2,39028,49416,3430,44033,0,0,0,0,0.00,0.00,0.00,0.00
2017-10-28 04:10:00,2,41416,0,0.00,2,2,0,2,26077,50000,7840,43690,0,0,0,0,0.00,0.00,0.00,0.00
2017-10-28 04:20:00,2,40055,0,0.00,2,2,0,2,28869,50000,7382,39862,0,0,0,0,0.00,0.00,0.00,0.00
2017-10-28 04:30:00,2,46592,0,0.00,2,2,0,2,39479,50000,3747,48482,0,0,0,0,0.00,0.00,0.00,0.00
2017-10-28 04:40:00,2,39095,0,0.00,2,2,0,2,29877,44114,4495,39399,0,0,0,0,0.00,0.00,0.00,0.00
2017-10-28 04:50:00,2,41330,0,0.00,2,2,0,2,30874,50000,7122,43225,0,0,0,0,0.00,0.00,0.00,0.00
2017-10-28 05:00:00,2,39668,0,0.00,2,2,0,2,30664,49912,6340,38648,0,0,0,0,0.00,0.00,0.00,0.00
2017-10-28 05:10:00,2,35132,0,0.00,2,2,0,2,22897,46650,6855,36056,0,0,0,0,0.00,0.00,0.00,0.00
2017-10-28 05:20:00,2,47114,0,0.00,2,2,0,2,37927,50000,3952,49916,0,0,0,0,0.00,0.00,0.00,0.00
2017-10-28 05:30:00,2,48994,0,0.00,2,2,0,2,46177,50000,1337,49734,0,0,0,0,0.00,0.00,0.00,0.00
2017-10-28 05:40:00,2,49381,0,0.00,2,2,0,2,47928,50000,832,50000,0,0,0,0,0.00,0.00,0.00,0.00
2017-10-28 05:50:00,2,48925,0,0.00,2,2,0,2,44567,50000,1887,50000,0,0,0,0,0.00,0.00,0.00,0.00
2017-10-28 06:00:00,2,50000,0,0.00,2,2,0,2,50000,50000,0,50000,0,0,0,0,0.00,0.00,0.00,0.00
2017-10-28 06:10:00,2,49550,0,0.00,2,2,0,2,47523,50000,818,50000,0,0,0,0,0.00,0.00,0.00,0.00
2017-10-28 06:20:00,2,49614,0,0.00,2,2,0,2,46136,50000,1159,50000,0,0,0,0,0.00,0.00,0.00,0.00
2017-10-28 06:30:00,2,49885,0,0.00,2,2,0,2,48852,50000,344,50000,0,0,0,0,0.00,0.00,0.00,0.00
2017-10-28 06:40:00,2,49562,0,0.00,2,2,0,2,47684,50000,878,50000,0,0,0,0,0.00,0.00,0.00,0.00
2017-10-28 06:50:00,2,50000,0,0.00,2,2,0,2,50000,50000,0,50000,0,0,0,0,0.00,0.00,0.00,0.00
2017-10-28 07:00:00,2,50000,0,0.00,2,2,0,2,50000,50000,0,50000,0,0,0,0,0.00,0.00,0.00,0.00
2017-10-28 07:10:00,2,42412,0,0.00,2,2,0,2,29559,50000,7270,45375,0,0,0,0,0.00,0.00,0.00,0.00
2017-10-28 07:20:00,2,50000,0,0.00,2,2,0,2,50000,50000,0,50000,0,0,0,0,0.00,0.00,0.00,0.00
2017-10-28 07:30:00,2,50000,0,0.00,2,2,0,2,50000,50000,0,50000,0,0,0,0,0.00,0.00,0.00,0.00
2017-10-28 07:40:00,2,50000,0,0.00,2,2,0,2,50000,50000,0,50000,0,0,0,0,0.00,0.00,0.00,0.00
2017-10-28 07:50:00,2,50000,0,0.00,2,2,0,2,50000,50000,0,50000,0,0,0,0,0.00,0.00,0.00,0.00
2017-10-28 08:00:00,2,43188,0,0.00,2,2,0,2,29634,50000,7486,45170,0,0,0,0,0.00,0.00,0.00,0.00
2017-10-28 08:10:00,2,34922,0,0.00,2,2,0,2,7669,48305,11253,37004,0,0,0,0,0.00,0.00,0.00,0.00
2017-10-28 08:20:00,2,8790,2,0.00,2,2,0,2,5594,14147,2538,8832,0,10,4,0,0.00,0.00,0.00,0.00
2017-10-28 08:30:00,2,12737,10,0.00,2,2,0,2,6785,17303,3186,13058,10,10,0,10,0.00,0.00,0.00,0.00
2017-10-28 08:40:00,2,43242,2,0.00,2,2,0,2,24665,50000,9911,50000,0,10,4,0,0.00,0.00,0.00,0.00
2017-10-28 08:50:00,2,50000,0,0.00,2,2,0,2,50000,50000,0,50000,0,0,0,0,0.00,0.00,0.00,0.00
2017-10-28 09:00:00,2,49782,0,0.00,2,2,0,2,47845,50000,646,50000,0,0,0,0,0.00,0.00,0.00,0.00
2017-10-28 09:10:00,2,50000,0,0.00,2,2,0,2,50000,50000,0,50000,0,0,0,0,0.00,0.00,0.00,0.00
2017-10-28 09:20:00,2,50000,0,0.00,2,2,0,2,50000,50000,0,50000,0,0,0,0,0.00,0.00,0.00,0.00
2017-10-28 09:30:00,2,50000,0,0.00,2,2,0,2,50000,50000,0,50000,0,0,0,0,0.00,0.00,0.00,0.00
2017-10-28 09:40:00,2,50000,0,0.00,2,2,0,2,50000,50000,0,50000,0,0,0,0,0.00,0.00,0.00,0.00
2017-10-28 09:50:00,2,50000,0,0.00,2,2,0,2,50000,50000,0,50000,0,0,0,0,0.00,0.00,0.00,0.00
2017-10-28 10:00:00,2,50000,0,0.00,2,2,0,2,50000,50000,0,50000,0,0,0,0,0.00,0.00,0.00,0.00
2017-10-28 10:10:00,2,50000,0,0.00,2,2,0,2,50000,50000,0,50000,0,0,0,0,0.00,0.00,0.00,0.00
2017-10-28 10:20:00,2,50000,0,0.00,2,2,0,2,50000,50000,0,50000,0,0,0,0,0.00,0.00,0.00,0.00
2017-10-28 10:30:00,2,50000,0,0.00,2,2,0,2,50000,50000,0,50000,0,0,0,0,0.00,0.00,0.00,0.00
2017-10-28 10:40:00,2,50000,0,0.00,2,2,0,2,50000,50000,0,50000,0,0,0,0,0.00,0.00,0.00,0.00
2017-10-28 10:50:00,2,50000,0,0.00,2,2,0,2,50000,50000,0,50000,0,0,0,0,0.00,0.00,0.00,0.00
2017-10-28 11:00:00,2,49923,0,0.00,2,2,0,2,49229,50000,231,50000,0,0,0,0,0.00,0.00,0.00,0.00
2017-10-28 11:10:00,2,49975,0,0.00,2,2,0,2,49746,50000,76,50000,0,0,0,0,0.00,0.00,0.00,0.00
2017-10-28 11:20:00,2,50000,0,0.00,2,2,0,2,50000,50000,0,50000,0,0,0,0,0.00,0.00,0.00,0.00
2017-10-28 11:30:00,2,50000,0,0.00,2,2,0,2,50000,50000,0,50000,0,0,0,0,0.00,0.00,0.00,0.00
2017-10-28 11:40:00,2,50000,0,0.00,2,2,0,2,50000,50000,0,50000,0,0,0,0,0.00,0.00,0.00,0.00
2017-10-28 11:50:00,2,50000,0,0.00,2,2,0,2,50000,50000,0,50000,0,0,0,0,0.00,0.00,0.00,0.00
2017-10-28 12:00:00,2,50000,0,0.00,2,2,0,2,50000,50000,0,50000,0,0,0,0,0.00,0.00,0.00,0.00
2017-10-28 12:10:00,2,50000,0,0.00,2,2,0,2,50000,50000,0,50000,0,0,0,0,0.00,0.00,0.00,0.00
2017-10-28 12:20:00,2,50000,0,0.00,2,2,0,2,50000,50000,0,50000,0,0,0,0,0.00,0.00,0.00,0.00
2017-10-28 12:30:00,2,50000,0,0.00,2,2,0,2,50000,50000,0,50000,0,0,0,0,0.00,0.00,0.00,0.00
2017-10-28 12:40:00,2,50000,0,0.00,2,2,0,2,50000,50000,0,50000,0,0,0,0,0.00,0.00,0.00,0.00
2017-10-28 12:50:00,2,50000,0,0.00,2,2,0,2,50000,50000,0,50000,0,0,0,0,0.00,0.00,0.00,0.00
2017-10-28 13:00:00,2,50000,0,0.00,2,2,0,2,50000,50000,0,50000,0,0,0,0,0.00,0.00,0.00,0.00
2017-10-28 13:10:00,2,50000,0,0.00,2,2,0,2,50000,50000,0,50000,0,0,0,0,0.00,0.00,0.00,0.00
2017-10-28 13:20:00,2,50000,0,0.00,2,2,0,2,50000,50000,0,50000,0,0,0,0,0.00,0.00,0.00,0.00
2017-10-28 13:30:00,2,50000,0,0.00,2,2,0,2,50000,50000,0,50000,0,0,0,0,0.00,0.00,0.00,0.00
2017-10-28 13:40:00,2,50000,0,0.00,2,2,0,2,50000,50000,0,50000,0,0,0,0,0.00,0.00,0.00,0.00
2017-10-28 13:50:00,2,50000,0,0.00,2,2,0,2,50000,50000,0,50000,0,0,0,0,0.00,0.00,0.00,0.00
2017-10-28 14:00:00,2,50000,0,0.00,2,2,0,2,50000,50000,0,50000,0,0,0,0,0.00,0.00,0.00,0.00
2017-10-28 14:10:00,2,50000,0,0.00,2,2,0,2,50000,50000,0,50000,0,0,0,0,0.00,0.00,0.00,0.00
2017-10-28 14:20:00,2,50000,0,0.00,2,2,0,2,50000,50000,0,50000,0,0,0,0,0.00,0.00,0.00,0.00
2017-10-28 14:30:00,2,50000,0,0.00,2,2,0,2,50000,50000,0,50000,0,0,0,0,0.00,0.00,0.00,0.00
2017-10-28 14:40:00,2,50000,0,0.00,2,2,0,2,50000,50000,0,50000,0,0,0,0,0.00,0.00,0.00,0.00
2017-10-28 14:50:00,2,49668,0,0.00,2,2,0,2,47011,50000,891,50000,0,0,0,0,0.00,0.00,0.00,0.00
2017-10-28 15:00:00,2,50000,0,0.00,2,2,0,2,50000,50000,0,50000,0,0,0,0,0.00,0.00,0.00,0.00
2017-10-28 15:10:00,2,50000,0,0.00,2,2,0,2,50000,50000,0,50000,0,0,0,0,0.00,0.00,0.00,0.00
2017-10-28 15:20:00,2,50000,0,0.00,2,2,0,2,50000,50000,0,50000,0,0,0,0,0.00,0.00,0.00,0.00
2017-10-28 15:30:00,2,50000,0,0.00,2,2,0,2,50000,50000,0,50000,0,0,0,0,0.00,0.00,0.00,0.00
2017-10-28 15:40:00,2,50000,0,0.00,2,2,0,2,50000,50000,0,50000,0,0,0,0,0.00,0.00,0.00,0.00
2017-10-28 15:50:00,2,50000,0,0.00,2,2,0,2,50000,50000,0,50000,0,0,0,0,0.00,0.00,0.00,0.00
2017-10-28 16:00:00,2,50000,0,0.00,2,2,0,2,50000,50000,0,50000,0,0,0,0,0.00,0.00,0.00,0.00
2017-10-28 16:10:00,2,50000,0,0.00,2,2,0,2,50000,50000,0,50000,0,0,0,0,0.00,0.00,0.00,0.00
2017-10-28 16:20:00,2,50000,0,0.00,2,2,0,2,50000,50000,0,50000,0,0,0,0,0.00,0.00,0.00,0.00
2017-10-28 16:30:00,2,50000,0,0.00,2,2,0,2,50000,50000,0,50000,0,0,0,0,0.00,0.00,0.00,0.00
2017-10-28 16:40:00,2,50000,0,0.00,2,2,0,2,50000,50000,0,50000,0,0,0,0,0.00,0.00,0.00,0.00
2017-10-28 16:50:00,2,50000,0,0.00,2,2,0,2,50000,50000,0,50000,0,0,0,0,0.00,0.00,0.00,0.00
2017-10-28 17:00:00,2,50000,0,0.00,2,2,0,2,50000,50000,0,50000,0,0,0,0,0.00,0.00,0.00,0.00
2017-10-28 17:10:00,2,49592,0,0.00,2,2,0,2,47653,50000,828,50000,0,0,0,0,0.00,0.00,0.00,0.00
2017-10-28 17:20:00,2,50000,0,0.00,2,2,0,2,50000,50000,0,50000,0,0,0,0,0.00,0.00,0.00,0.00
2017-10-28 17:30:00,2,41237,0,0.00,2,2,0,2,29162,50000,7715,41080,0,0,0,0,0.00,0.00,0.00,0.00
2017-10-28 17:40:00,2,26726,0,0.00,2,2,0,2,19305,38385,5409,25556,0,0,0,0,0.00,0.00,0.00,0.00
2017-10-28 17:50:00,2,41082,0,0.00,2,2,0,2,30192,50000,5971,40648,0,0,0,0,0.00,0.00,0.00,0.00
2017-10-28 18:00:00,2,50000,0,0.00,2,2,0,2,50000,50000,0,50000,0,0,0,0,0.00,0.00,0.00,0.00
2017-10-28 18:10:00,2,50000,0,0.00,2,2,0,2,50000,50000,0,50000,0,0,0,0,0.00,0.00,0.00,0.00
2017-10-28 18:20:00,2,50000,0,0.00,2,2,0,2,50000,50000,0,50000,0,0,0,0,0.00,0.00,0.00,0.00
2017-10-28 18:30:00,2,50000,0,0.00,2,2,0,2,50000,50000,0,50000,0,0,0,0,0.00,0.00,0.00,0.00
2017-10-28 18:40:00,2,50000,0,0.00,2,2,0,2,50000,50000,0,50000,0,0,0,0,0.00,0.00,0.00,0.00
2017-10-28 18:50:00,2,50000,0,0.00,2,2,0,2,50000,50000,0,50000,0,0,0,0,0.00,0.00,0.00,0.00
2017-10-28 19:00:00,2,50000,0,0.00,2,2,0,2,50000,50000,0,50000,0,0,0,0,0.00,0.00,0.00,0.00
2017-10-28 19:10:00,2,50000,0,0.00,2,2,0,2,50000,50000,0,50000,0,0,0,0,0.00,0.00,0.00,0.00
2017-10-28 19:20:00,2,50000,0,0.00,2,2,0,2,50000,50000,0,50000,0,0,0,0,0.00,0.00,0.00,0.00
2017-10-28 19:30:00,2,50000,0,0.00,2,2,0,2,50000,50000,0,50000,0,0,0,0,0.00,0.00,0.00,0.00
2017-10-28 19:40:00,2,50000,0,0.00,2,2,0,2,50000,50000,0,50000,0,0,0,0,0.00,0.00,0.00,0.00
2017-10-28 19:50:00,2,50000,0,0.00,2,2,0,2,50000,50000,0,50000,0,0,0,0,0.00,0.00,0.00,0.00
2017-10-28 20:00:00,2,50000,0,0.00,2,2,0,2,50000,50000,0,50000,0,0,0,0,0.00,0.00,0.00,0.00
2017-10-28 20:10:00,2,50000,0,0.00,2,2,0,2,50000,50000,0,50000,0,0,0,0,0.00,0.00,0.00,0.00
2017-10-28 20:20:00,2,49932,0,0.00,2,2,0,2,49319,50000,204,50000,0,0,0,0,0.00,0.00,0.00,0.00
2017-10-28 20:30:00,2,50000,0,0.00,2,2,0,2,50000,50000,0,50000,0,0,0,0,0.00,0.00,0.00,0.00
2017-10-28 20:40:00,2,50000,0,0.00,2,2,0,2,50000,50000,0,50000,0,0,0,0,0.00,0.00,0.00,0.00
2017-10-28 20:50:00,2,50000,0,0.00,2,2,0,2,50000,50000,0,50000,0,0,0,0,0.00,0.00,0.00,0.00
2017-10-28 21:00:00,2,50000,0,0.00,2,2,0,2,50000,50000,0,50000,0,0,0,0,0.00,0.00,0.00,0.00
2017-10-28 21:10:00,2,50000,0,0.00,2,2,0,2,50000,50000,0,50000,0,0,0,0,0.00,0.00,0.00,0.00
2017-10-28 21:20:00,2,50000,0,0.00,2,2,0,2,50000,50000,0,50000,0,0,0,0,0.00,0.00,0.00,0.00
2017-10-28 21:30:00,2,50000,0,0.00,2,2,0,2,50000,50000,0,50000,0,0,0,0,0.00,0.00,0.00,0.00
2017-10-28 21:40:00,2,50000,0,0.00,2,2,0,2,50000,50000,0,50000,0,0,0,0,0.00,0.00,0.00,0.00
2017-10-28 21:50:00,2,49938,0,0.00,2,2,0,2,49385,50000,184,50000,0,0,0,0,0.00,0.00,0.00,0.00
2017-10-28 22:00:00,2,50000,0,0.00,2,2,0,2,50000,50000,0,50000,0,0,0,0,0.00,0.00,0.00,0.00
2017-10-28 22:10:00,2,50000,0,0.00,2,2,0,2,50000,50000,0,50000,0,0,0,0,0.00,0.00,0.00,0.00
2017-10-28 22:20:00,2,50000,0,0.00,2,2,0,2,50000,50000,0,50000,0,0,0,0,0.00,0.00,0.00,0.00
2017-10-28 22:30:00,2,50000,0,0.00,2,2,0,2,50000,50000,0,50000,0,0,0,0,0.00,0.00,0.00,0.00
2017-10-28 22:40:00,2,50000,0,0.00,2,2,0,2,50000,50000,0,50000,0,0,0,0,0.00,0.00,0.00,0.00
2017-10-28 22:50:00,2,50000,0,0.00,2,2,0,2,50000,50000,0,50000,0,0,0,0,0.00,0.00,0.00,0.00
2017-10-28 23:00:00,2,50000,0,0.00,2,2,0,2,50000,50000,0,50000,0,0,0,0,0.00,0.00,0.00,0.00
2017-10-28 23:10:00,2,50000,0,0.00,2,2,0,2,50000,50000,0,50000,0,0,0,0,0.00,0.00,0.00,0.00
2017-10-28 23:20:00,2,50000,0,0.00,2,2,0,2,50000,50000,0,50000,0,0,0,0,0.00,0.00,0.00,0.00
2017-10-28 23:30:00,2,50000,0,0.00,2,2,0,2,50000,50000,0,50000,0,0,0,0,0.00,0.00,0.00,0.00
2017-10-28 23:40:00,2,50000,0,0.00,2,2,0,2,50000,50000,0,50000,0,0,0,0,0.00,0.00,0.00,0.00
2017-10-28 23:50:00,2,50000,0,0.00,2,2,0,2,50000,50000,0,50000,0,0,0,0,0.00,0.00,0.00,0.00
